Terug naar catalogus

STARLINK-37419

ActiefCommunicatieVLEO
NORAD 69197·PAYLOAD·🇺🇸 United States

Gelanceerd May 25, 2026 vanaf Cape Canaveral Space Force Station

Loading…

Volgende Passages (komende 24 uur)

TLE

VersSource: CelesTrak SupGP

Epoch: Sep 15, 2026, 04:01 UTC

1 69197C 26114R   26258.16784722  .00036365  00000+0  10746-2 0  2586
2 69197  53.1571 138.6343 0001390  86.3909  58.5286 15.34367527    10

Volg STARLINK-37419 in realtime met AllMySat

Download on the App Store